W0WC Weather Reports


time (UTC)temp
F
wind
direction
speed
knots
gust
knots
rain 1hr
in
rain 24hr
in
rain mn
in
humidity
%
barometer
mb
20260507135456 57 87 2.6 2.6 0.00 0.00 0.00 48 1019.6
20260507134953 56 53 1.7 2.6 0.00 0.00 0.00 48 1019.8
20260507134450 56 166 2.6 2.6 0.00 0.00 0.00 50 1019.6
20260507133946 55 97 2.6 3.5 0.00 0.00 0.00 50 1019.6
20260507133442 56 195 3.5 3.5 0.00 0.00 0.00 51 1019.7
20260507132941 55 56 1.7 1.7 0.00 0.00 0.00 52 1019.7
20260507132436 55 96 2.6 2.6 0.00 0.00 0.00 52 1019.6
20260507131933 54 178 1.7 2.6 0.00 0.00 0.00 52 1019.7
20260507131430 54 185 3.5 5.2 0.00 0.00 0.00 52 1019.7
20260507130927 53 142 1.7 1.7 0.00 0.00 0.00 54 1019.7
20260507130424 53 352 1.7 1.7 0.00 0.00 0.00 55 1019.5
20260507125923 53 197 1.7 2.6 0.00 0.00 0.00 55 1019.5
20260507125420 52 91 1.7 1.7 0.00 0.00 0.00 56 1019.5
20260507124918 51 139 1.7 2.6 0.00 0.00 0.00 59 1019.4
20260507124413 51 80 1.7 1.7 0.00 0.00 0.00 58 1019.3
20260507123912 50 98 1.7 1.7 0.00 0.00 0.00 62 1019.2
20260507123409 49 135 1.7 2.6 0.00 0.00 0.00 63 1019.4
20260507122906 49 105 2.6 2.6 0.00 0.00 0.00 65 1019.4
20260507122400 48 133 1.7 1.7 0.00 0.00 0.00 68 1019.3
20260507121857 47 109 1.7 2.6 0.00 0.00 0.00 72 1019.3
20260507121352 46 81 1.7 1.7 0.00 0.00 0.00 74 1019.4
20260507120850 45 43 0.0 0.9 0.00 0.00 0.00 78 1019.5
20260507120346 44 42 0.0 0.0 0.00 0.00 0.00 81 1019.3
20260507115842 44 27 0.0 0.0 0.00 0.00 0.00 83 1019.2
20260507115338 43 27 0.0 0.0 0.00 0.00 0.00 84 1019.3
20260507114834 43 27 0.0 0.0 0.00 0.00 0.00 85 1019.3
20260507114331 43 27 0.0 0.0 0.00 0.00 0.00 84 1019.1
20260507113829 43 27 0.0 0.0 0.00 0.00 0.00 84 1019.2
20260507113325 43 27 0.0 0.0 0.00 0.00 0.00 83 1019.3
20260507112823 43 27 0.0 0.0 0.00 0.00 0.00 82 1019.0
20260507112320 44 27 0.0 0.0 0.00 0.00 0.00 81 1019.1
20260507111818 44 27 0.0 0.0 0.00 0.00 0.00 80 1018.9
20260507111314 44 28 0.0 0.0 0.00 0.00 0.00 79 1019.0
20260507110810 45 27 0.0 0.0 0.00 0.00 0.00 80 1019.1
20260507110307 45 22 0.0 0.0 0.00 0.00 0.00 78 1019.1
20260507105804 46 28 0.0 0.0 0.00 0.00 0.00 77 1019.1
20260507105300 46 36 0.0 0.0 0.00 0.00 0.00 76 1018.9
20260507104757 46 49 0.9 0.9 0.00 0.00 0.00 75 1018.9
20260507104253 47 46 0.0 0.0 0.00 0.00 0.00 74 1018.8
20260507103750 47 50 0.9 0.9 0.00 0.00 0.00 74 1018.9
20260507103246 47 91 1.7 1.7 0.00 0.00 0.00 75 1018.7
20260507102742 47 53 0.9 0.9 0.00 0.00 0.00 75 1018.8
20260507102239 46 54 0.9 0.9 0.00 0.00 0.00 76 1018.7
20260507101735 46 54 0.9 0.9 0.00 0.00 0.00 77 1018.8
20260507101231 46 112 2.6 2.6 0.00 0.00 0.00 78 1018.7
20260507100728 46 59 0.9 1.7 0.00 0.00 0.00 84 1018.8
20260507100226 45 44 0.9 0.9 0.00 0.00 0.00 88 1018.9
20260507095724 45 23 0.0 0.0 0.00 0.00 0.00 90 1018.9
20260507095220 45 23 0.0 0.0 0.00 0.00 0.00 91 1018.9
20260507094717 45 19 0.0 0.0 0.00 0.00 0.00 91 1019.0
20260507094214 45 19 0.0 0.0 0.00 0.00 0.00 91 1019.0
20260507093711 45 19 0.0 0.0 0.00 0.00 0.00 92 1018.8
20260507093210 45 24 0.0 0.0 0.00 0.00 0.00 92 1018.9
20260507092706 45 24 0.0 0.0 0.00 0.00 0.00 93 1018.9
20260507092203 44 28 0.0 0.0 0.00 0.00 0.00 93 1018.6
20260507091659 44 25 0.0 0.0 0.00 0.00 0.00 94 1018.8
20260507091156 44 20 0.0 0.0 0.00 0.00 0.00 94 1018.8
20260507090651 43 23 0.0 0.0 0.00 0.00 0.00 94 1019.0
20260507090149 43 17 0.0 0.0 0.00 0.00 0.00 94 1019.0
20260507085645 43 11 0.0 0.0 0.00 0.00 0.00 95 1019.1
20260507085142 42 19 0.0 0.0 0.00 0.00 0.00 95 1019.0
20260507084639 42 26 0.0 0.0 0.00 0.00 0.00 95 1018.9
20260507084136 42 29 0.0 0.0 0.00 0.00 0.00 95 1019.0
20260507083633 41 27 0.0 0.0 0.00 0.00 0.00 95 1019.0
20260507083129 41 10 0.0 0.0 0.00 0.00 0.00 94 1019.1
20260507082625 41 10 0.0 0.0 0.00 0.00 0.00 94 1019.1
20260507082122 41 10 0.0 0.0 0.00 0.00 0.00 94 1019.1
20260507081618 41 10 0.0 0.0 0.00 0.00 0.00 94 1019.0
20260507081115 41 11 0.0 0.0 0.00 0.00 0.00 94 1019.1
20260507080611 41 16 0.0 0.0 0.00 0.00 0.00 94 1018.9
20260507080108 40 12 0.0 0.0 0.00 0.00 0.00 93 1019.2
20260507075603 41 12 0.0 0.0 0.00 0.00 0.00 93 1019.0
20260507075059 41 12 0.0 0.0 0.00 0.00 0.00 93 1019.0
20260507074556 41 12 0.0 0.0 0.00 0.00 0.00 92 1019.0
20260507074055 41 13 0.0 0.0 0.00 0.00 0.00 92 1018.8
20260507073550 41 13 0.0 0.0 0.00 0.00 0.00 92 1018.9
20260507073047 41 10 0.0 0.0 0.00 0.00 0.00 91 1019.1
20260507072545 42 9 0.0 0.0 0.00 0.00 0.00 91 1018.8
20260507072041 42 9 0.0 0.0 0.00 0.00 0.00 91 1019.1
20260507071539 42 9 0.0 0.0 0.00 0.00 0.00 91 1019.1
20260507071035 42 14 0.0 0.0 0.00 0.00 0.00 91 1019.2
20260507070533 42 18 0.0 0.0 0.00 0.00 0.00 91 1019.2
20260507070030 42 19 0.0 0.0 0.00 0.00 0.00 90 1019.3
20260507065526 42 20 0.0 0.0 0.00 0.00 0.00 90 1019.0
20260507065023 42 20 0.0 0.0 0.00 0.00 0.00 90 1019.2
20260507064521 41 18 0.0 0.0 0.00 0.00 0.00 89 1019.2
20260507064020 42 18 0.0 0.0 0.00 0.00 0.00 89 1019.1
20260507063516 42 18 0.0 0.0 0.00 0.00 0.00 89 1019.3
20260507063014 42 21 0.0 0.0 0.00 0.00 0.00 89 1019.3
20260507062510 42 16 0.0 0.0 0.00 0.00 0.00 89 1019.2
20260507062008 42 13 0.0 0.0 0.00 0.00 0.00 89 1019.6
20260507061505 42 11 0.0 0.0 0.00 0.00 0.00 89 1019.5
20260507061003 42 5 0.0 0.0 0.00 0.00 0.00 89 1019.5
20260507060500 42 4 0.0 0.0 0.00 0.00 0.00 89 1019.3
20260507055956 42 2 0.0 0.0 0.00 0.00 0.00 89 1019.5
20260507055452 42 14 0.0 0.0 0.00 0.00 0.00 88 1019.4
20260507054949 42 18 0.0 0.0 0.00 0.00 0.00 87 1019.4
20260507054445 43 18 0.0 0.0 0.00 0.00 0.00 86 1019.3
20260507053942 43 19 0.0 0.0 0.00 0.00 0.00 86 1019.4
20260507053440 43 19 0.0 0.0 0.00 0.00 0.00 85 1019.4
20260507052938 43 12 0.0 0.0 0.00 0.00 0.00 84 1019.2
20260507052435 44 12 0.0 0.0 0.00 0.00 0.00 84 1019.3
20260507051932 44 14 0.0 0.0 0.00 0.00 0.00 84 1019.2
20260507051430 44 25 0.0 0.0 0.00 0.00 0.00 84 1019.3
20260507050927 44 25 0.0 0.0 0.00 0.00 0.00 85 1019.4
20260507050423 44 20 0.0 0.0 0.00 0.00 0.00 85 1019.4
20260507045920 44 11 0.0 0.0 0.00 0.00 0.00 85 1019.4
20260507045416 44 10 0.0 0.0 0.00 0.00 0.00 85 1019.4
20260507044914 44 5 0.0 0.0 0.00 0.00 0.00 84 1019.4
20260507044410 44 10 0.0 0.0 0.00 0.00 0.00 82 1019.4
20260507043907 44 9 0.0 0.0 0.00 0.00 0.00 83 1019.6
20260507043403 44 9 0.0 0.0 0.00 0.00 0.00 82 1019.3
20260507042900 45 8 0.0 0.0 0.00 0.00 0.00 82 1019.2
20260507042356 45 359 0.0 0.0 0.00 0.00 0.00 81 1019.4
20260507041852 45 11 0.0 0.0 0.00 0.00 0.00 81 1019.3
20260507041349 45 12 0.0 0.0 0.00 0.00 0.00 80 1019.4
20260507040846 46 10 0.0 0.0 0.00 0.00 0.00 78 1019.3
20260507040342 46 15 0.0 0.0 0.00 0.00 0.00 76 1019.1
20260507035838 46 24 0.0 0.0 0.00 0.01 0.01 76 1019.2
20260507035333 47 20 0.0 0.0 0.00 0.01 0.01 74 1019.2
20260507034832 47 8 0.0 0.0 0.00 0.01 0.01 72 1019.1
20260507034328 48 6 0.0 0.0 0.00 0.01 0.01 70 1019.0
20260507033826 48 10 0.0 0.0 0.00 0.01 0.01 69 1019.0
20260507033324 48 11 0.0 0.0 0.00 0.01 0.01 69 1019.0
20260507032821 49 15 0.0 0.0 0.00 0.01 0.01 68 1019.0
20260507032317 49 10 0.0 0.0 0.00 0.01 0.01 67 1019.2
20260507031814 50 4 0.0 0.9 0.00 0.01 0.01 67 1018.8
20260507031310 50 0 0.9 0.9 0.00 0.01 0.01 67 1019.0
20260507030806 50 7 0.9 0.9 0.00 0.01 0.01 67 1019.1
20260507030305 49 8 0.0 0.0 0.00 0.01 0.01 69 1018.9
20260507025801 49 8 0.0 0.9 0.00 0.01 0.01 71 1019.0
20260507025258 48 11 0.0 0.9 0.00 0.01 0.01 73 1019.0
20260507024756 47 14 0.0 0.0 0.00 0.01 0.01 73 1018.9
20260507024253 48 9 0.0 0.0 0.00 0.01 0.01 76 1018.8
20260507023749 48 12 0.0 0.0 0.00 0.01 0.01 74 1019.0
20260507023246 49 13 0.0 0.0 0.00 0.01 0.01 69 1018.7
20260507022743 49 13 0.0 0.0 0.00 0.01 0.01 67 1018.6
20260507022239 50 13 0.0 0.0 0.00 0.01 0.01 65 1018.8
20260507021736 51 13 0.0 0.0 0.00 0.01 0.01 63 1018.5
20260507021231 51 13 0.0 0.0 0.00 0.01 0.01 61 1018.4
20260507020730 52 12 0.0 0.0 0.00 0.01 0.01 60 1018.6
20260507020226 53 12 0.0 0.0 0.00 0.01 0.01 59 1018.4
20260507015723 53 11 0.0 0.9 0.00 0.01 0.01 58 1018.4
20260507015221 53 12 0.0 0.0 0.00 0.01 0.01 58 1018.3
20260507014717 54 9 0.9 0.9 0.00 0.01 0.01 58 1018.2
20260507014214 54 12 0.0 0.9 0.00 0.01 0.01 56 1018.1
20260507013710 54 1 0.9 0.9 0.00 0.01 0.01 55 1018.1
20260507013208 55 15 1.7 1.7 0.00 0.01 0.01 54 1018.1
20260507012705 55 9 1.7 2.6 0.00 0.01 0.01 53 1018.1
20260507012200 56 11 1.7 1.7 0.00 0.01 0.01 53 1017.9
20260507011658 56 20 0.9 1.7 0.00 0.01 0.01 51 1017.9
20260507011154 56 358 1.7 1.7 0.00 0.01 0.01 56 1017.8
20260507010649 57 6 0.9 0.9 0.00 0.01 0.01 53 1017.5
20260507010145 57 19 0.9 0.9 0.00 0.01 0.01 48 1017.5
20260507005643 58 27 0.9 1.7 0.00 0.01 0.01 48 1017.5
20260507005139 58 26 0.0 0.9 0.00 0.01 0.01 46 1017.5
20260507004636 58 19 1.7 1.7 0.00 0.01 0.01 46 1017.6
20260507004134 59 15 0.9 1.7 0.00 0.01 0.01 45 1017.6
20260507003630 59 346 0.9 1.7 0.00 0.01 0.01 45 1017.4
20260507003124 59 12 3.5 3.5 0.00 0.01 0.01 44 1017.5
20260507002621 59 29 0.9 1.7 0.00 0.01 0.01 44 1017.5
20260507002117 59 345 3.5 5.2 0.00 0.01 0.01 44 1017.6
20260507001614 59 19 2.6 2.6 0.00 0.01 0.01 44 1017.4
20260507001112 59 11 2.6 2.6 0.00 0.01 0.01 45 1017.4
20260507000608 59 35 1.7 2.6 0.00 0.01 0.01 45 1017.2
20260506235601 60 21 6.1 7.0 0.00 0.01 0.01 43 1017.2
20260506235101 60 11 2.6 3.5 0.00 0.01 0.01 43 1017.0
20260506234559 60 14 3.5 6.1 0.00 0.01 0.01 42 1017.0
20260506234055 60 10 3.5 6.1 0.00 0.01 0.01 44 1016.9
20260506233552 60 73 3.5 7.0 0.00 0.01 0.01 43 1016.8
20260506233049 61 11 3.5 3.5 0.00 0.01 0.01 43 1016.6
20260506232545 61 16 2.6 3.5 0.00 0.01 0.01 43 1016.8
20260506232041 61 1 7.0 8.7 0.00 0.01 0.01 43 1016.6
20260506231539 61 15 7.8 9.6 0.00 0.01 0.01 43 1016.6
20260506231036 61 0 5.2 7.8 0.00 0.01 0.01 43 1016.6
20260506230533 61 15 9.6 12.2 0.00 0.01 0.01 43 1016.7
20260506230030 62 327 5.2 8.7 0.00 0.01 0.01 44 1016.6
20260506225527 61 27 7.0 9.6 0.00 0.01 0.01 43 1016.7
20260506225023 62 24 9.6 12.2 0.00 0.01 0.01 42 1016.3
20260506224520 62 9 3.5 5.2 0.00 0.01 0.01 42 1016.4
20260506224017 62 57 0.9 1.7 0.00 0.01 0.01 43 1016.7
20260506223512 62 19 4.3 7.8 0.00 0.01 0.01 42 1016.8
20260506223009 62 3 6.1 7.8 0.00 0.01 0.01 43 1016.7
20260506222506 62 33 3.5 5.2 0.00 0.01 0.01 42 1016.5
20260506222002 62 12 1.7 2.6 0.00 0.01 0.01 42 1016.5
20260506221500 62 347 1.7 2.6 0.00 0.01 0.01 42 1016.6
20260506220958 62 67 1.7 2.6 0.00 0.01 0.01 40 1016.6
20260506220453 62 2 3.5 5.2 0.00 0.01 0.01 39 1016.8
20260506215949 61 5 0.9 1.7 0.00 0.01 0.01 41 1016.9
20260506215446 61 59 0.9 2.6 0.00 0.01 0.01 42 1016.6
20260506214947 61 359 7.0 11.3 0.00 0.01 0.01 43 1016.6
20260506214444 61 349 9.6 11.3 0.00 0.01 0.01 42 1016.8
20260506213942 61 354 5.2 6.1 0.00 0.01 0.01 43 1016.8
20260506213439 61 307 6.1 7.0 0.00 0.01 0.01 43 1016.7
20260506212936 62 341 9.6 11.3 0.00 0.01 0.01 42 1016.8
20260506212432 62 46 7.8 9.6 0.00 0.01 0.01 43 1016.7
20260506211927 62 358 4.3 5.2 0.00 0.01 0.01 42 1016.8
20260506211424 62 39 3.5 3.5 0.00 0.01 0.01 42 1016.9
20260506210921 61 36 3.5 5.2 0.00 0.01 0.01 44 1016.8
20260506210417 62 19 3.5 3.5 0.00 0.01 0.01 42 1016.9
20260506205915 62 80 2.6 3.5 0.00 0.01 0.01 43 1017.0
20260506205410 62 303 5.2 6.1 0.00 0.01 0.01 46 1016.9
20260506204907 62 43 1.7 2.6 0.00 0.01 0.01 46 1017.0
20260506204405 62 4 6.1 7.8 0.00 0.01 0.01 44 1017.0
20260506203902 62 25 2.6 5.2 0.00 0.01 0.01 43 1017.2
20260506203359 61 6 0.9 0.9 0.00 0.01 0.01 44 1017.1
20260506202856 61 358 11.3 14.8 0.00 0.01 0.01 41 1017.4
20260506202353 62 320 2.6 5.2 0.00 0.01 0.01 40 1017.4
20260506201849 62 48 0.9 1.7 0.00 0.01 0.01 43 1017.4
20260506201347 61 334 5.2 7.8 0.00 0.01 0.01 43 1017.4
20260506200843 61 34 3.5 5.2 0.00 0.01 0.01 44 1017.4
20260506200339 61 331 10.4 12.2 0.00 0.01 0.01 42 1017.5
20260506195836 61 317 6.1 7.8 0.00 0.01 0.01 44 1017.3
20260506195333 61 348 4.3 6.1 0.00 0.01 0.01 44 1017.3
20260506194830 61 38 5.2 8.7 0.00 0.01 0.01 42 1017.5
20260506194326 61 39 0.9 1.7 0.00 0.01 0.01 45 1017.6
20260506193824 61 327 3.5 3.5 0.00 0.01 0.01 44 1017.6
20260506193321 61 310 4.3 8.7 0.00 0.01 0.01 44 1017.9
20260506192817 61 18 7.8 8.7 0.00 0.01 0.01 45 1018.0
20260506192314 61 317 5.2 7.0 0.00 0.01 0.01 43 1018.1
20260506191811 60 25 2.6 5.2 0.00 0.01 0.01 45 1018.1
20260506191307 60 352 1.7 1.7 0.00 0.01 0.01 43 1018.1
20260506190804 61 22 7.0 7.8 0.00 0.01 0.01 45 1018.3
20260506190301 60 4 1.7 3.5 0.00 0.01 0.01 44 1018.0
20260506185758 60 58 7.0 7.8 0.00 0.01 0.01 45 1018.2
20260506185254 61 6 3.5 5.2 0.00 0.01 0.01 44 1018.3
20260506184752 60 24 5.2 6.1 0.00 0.01 0.01 44 1018.3
20260506184249 60 2 8.7 13.9 0.00 0.01 0.01 45 1018.3
20260506183746 60 21 3.5 6.1 0.00 0.01 0.01 43 1018.4
20260506183246 59 12 4.3 7.0 0.00 0.01 0.01 45 1018.4
20260506182744 60 36 1.7 5.2 0.00 0.01 0.01 44 1018.5
20260506182241 60 8 5.2 6.1 0.00 0.01 0.01 45 1018.5
20260506181739 60 20 3.5 6.1 0.00 0.01 0.01 45 1018.7
20260506181236 60 339 0.9 2.6 0.00 0.01 0.01 47 1019.0
20260506180733 60 20 7.0 8.7 0.00 0.01 0.01 45 1018.9
20260506180234 60 12 0.9 0.9 0.00 0.01 0.01 42 1018.9
20260506175730 60 14 0.9 0.9 0.00 0.01 0.01 46 1019.2
20260506175227 60 94 1.7 5.2 0.00 0.01 0.01 45 1019.3
20260506174725 60 10 5.2 7.8 0.00 0.01 0.01 45 1019.1
20260506174221 59 22 1.7 3.5 0.00 0.01 0.01 47 1019.2
20260506173719 58 14 5.2 7.0 0.00 0.01 0.01 46 1019.2
20260506173216 59 18 5.2 7.8 0.00 0.01 0.01 44 1019.1
20260506172713 59 3 3.5 5.2 0.00 0.01 0.01 47 1019.2
20260506172209 59 20 1.7 5.2 0.00 0.01 0.01 46 1019.2
20260506171707 57 19 0.0 0.0 0.00 0.01 0.01 47 1019.1
20260506171205 57 32 1.7 2.6 0.00 0.01 0.01 47 1019.1
20260506170702 57 23 2.6 3.5 0.00 0.01 0.01 47 1019.3
20260506170158 57 26 3.5 5.2 0.00 0.01 0.01 46 1019.5
20260506165657 57 27 3.5 5.2 0.00 0.01 0.01 49 1019.6
20260506165153 57 115 0.9 1.7 0.00 0.01 0.01 50 1019.5
20260506164650 56 12 2.6 2.6 0.00 0.01 0.01 50 1019.5
20260506164148 56 32 1.7 3.5 0.00 0.01 0.01 48 1019.5
20260506163644 57 25 4.3 6.1 0.00 0.01 0.01 49 1019.1
20260506163139 56 350 2.6 3.5 0.00 0.01 0.01 50 1018.9
20260506162635 57 2 4.3 6.1 0.00 0.01 0.01 51 1019.0
20260506162133 56 36 1.7 3.5 0.00 0.01 0.01 53 1018.7
20260506161630 57 75 5.2 8.7 0.00 0.01 0.01 52 1018.6
20260506161127 57 37 0.9 0.9 0.00 0.01 0.01 53 1018.3
20260506160624 57 24 2.6 2.6 0.00 0.01 0.01 54 1018.2
20260506160121 57 10 1.7 3.5 0.00 0.01 0.01 53 1018.1
20260506155620 56 43 1.7 2.6 0.00 0.01 0.01 54 1018.3
20260506155117 54 53 1.7 2.6 0.00 0.01 0.01 58 1018.0
20260506153218 54 33 3.5 5.2 0.00 0.01 0.01 56 1018.3
20260506152715 54 17 7.8 9.6 0.00 0.01 0.01 57 1018.2
20260506152212 54 6 2.6 5.2 0.00 0.01 0.01 59 1018.2
20260506151712 54 7 1.7 1.7 0.00 0.01 0.01 59 1018.2
20260506151208 54 67 4.3 6.1 0.00 0.01 0.01 58 1018.3
20260506150704 54 14 2.6 3.5 0.00 0.01 0.01 60 1018.2
20260506150201 54 356 2.6 3.5 0.00 0.01 0.01 62 1018.5
20260506145658 53 21 3.5 5.2 0.00 0.01 0.01 61 1018.1
20260506145155 53 11 1.7 2.6 0.00 0.01 0.01 62 1017.9
20260506144653 53 23 1.7 1.7 0.00 0.01 0.01 65 1018.0
20260506144149 53 352 3.5 3.5 0.00 0.01 0.01 66 1018.0
20260506143646 52 18 1.7 2.6 0.00 0.01 0.01 69 1017.5
20260506143144 51 28 1.7 2.6 0.00 0.01 0.01 69 1017.9
20260506142643 51 2 2.6 2.6 0.00 0.01 0.01 70 1017.8
20260506142140 51 45 5.2 7.8 0.00 0.01 0.01 71 1017.5
20260506141638 50 18 1.7 2.6 0.00 0.01 0.01 72 1017.8
20260506141136 50 43 0.9 1.7 0.00 0.01 0.01 74 1018.1
20260506140633 50 15 2.6 3.5 0.00 0.01 0.01 75 1018.2
20260506140130 49 354 3.5 3.5 0.00 0.01 0.01 76 1018.3